SCP
0 0 0 0 0 0 0 0 0 0 0 0 0 0 0 0 0 0 0 0 0 0 0 1 1 1 1 1 1 1 1 1 1 1 1 1 1 2 1 1 1 1 1
0 0 0 0 0 0 0 0 0 0 0 0 0 0 0 0 0 0 0 0 0 0 0 1 1 1 1 1 1 1 1 1 1 1 1 1 1 1 1 1 1 1 1
0 0 0 0 0 0 0 0 0 0 0 0 0 0 0 0 0 0 0 0 0 0 0 0 0 0 0 0 0 1 1 1 1 1 1 1 1 1 1 1 1 1 1
1 1 1 0 0 0 0 0 0 0 0 0 0 0 0 0 0 0 0 0 0 0 0 0 0 0 0 0 0 0 0 0 0 1 1 1 1 1 1 1 1 1 1
1 1 1 1 0 0 0 0 0 0 0 0 0 0 0 0 0 0 0 0 0 0 0 0 0 0 0 0 0 0 0 0 0 1 1 1 1 1 1 1 1 1 1
1 1 1 1 1 0 0 0 0 0 0 0 0 0 0 0 0 0 0 0 0 0 0 0 0 0 0 0 0 0 0 0 0 0 1 0 0 1 1 1 1 1 1
1 1 1 1 1 1 0 0 0 0 0 0 0 0 0 0 0 0 0 0 0 0 0 0 0 0 0 0 0 0 0 0 0 0 0 0 0 0 0 0 1 1 1
1 1 1 1 1 1 1 0 0 0 0 0 0 0 0 0 0 0 0 0 0 0 0 0 0 0 0 0 0 0 0 0 0 0 0 0 0 0 0 0 1 1 1
1 1 1 1 1 1 1 0 0 0 0 0 0 0 0 0 0 0 0 0 0 0 0 0 0 0 0 0 0 0 0 0 0 0 0 0 0 0 0 0 1 1 1
1 1 1 1 1 1 1 0 0 1 0 0 0 0 0 0 0 0 0 0 0 0 0 0 0 0 0 0 0 0 0 0 0 0 0 0 0 0 0 0 1 1 1
1 1 1 1 1 1 1 0 1 1 1 0 0 0 0 0 0 0 0 0 0 0 0 0 0 0 0 0 0 0 0 0 0 0 0 0 0 0 0 0 1 1 1
1 1 1 1 1 1 1 1 1 1 1 1 0 0 0 0 0 0 0 0 0 0 0 0 0 0 0 0 0 0 0 0 0 0 0 0 0 0 0 0 0 1 1
1 1 1 1 1 1 1 1 1 1 1 1 0 0 0 0 0 0 0 0 0 0 0 0 0 0 0 0 0 0 0 0 0 0 0 0 0 0 0 0 0 0 0
1 0 1 1 1 1 0 0 0 1 0 0 0 0 0 0 0 0 0 0 0 0 0 0 0 0 0 0 0 0 0 0 0 0 0 0 0 0 0 0 0 0 0
1 0 0 0 0 0 0 0 0 0 0 0 0 0 0 0 0 0 0 0 0 0 0 0 0 0 0 0 0 0 0 0 0 0 0 0 0 0 0 0 0 0 0
1 1 1 0 0 0 0 0 0 0 0 0 0 0 0 0 0 0 0 0 0 0 0 0 0 0 0 0 0 0 0 0 0 0 1 1 0 0 0 0 0 0 0
1 1 1 1 0 0 0 0 0 0 0 0 0 0 0 0 0 0 0 0 0 0 0 0 0 0 0 0 0 0 0 0 0 0 1 1 1 0 0 0 0 0 0
1 1 1 1 1 0 0 0 0 0 0 0 0 0 0 0 0 0 0 0 0 0 0 0 0 0 0 0 0 0 0 0 0 0 0 0 0 0 0 0 0 0 0
0 0 1 1 1 1 0 0 0 0 0 0 0 0 0 0 0 0 0 0 0 0 0 0 0 0 0 0 0 0 0 0 0 0 0 0 0 0 0 0 0 0 0
0 0 0 1 1 1 1 1 0 0 0 0 0 0 0 0 0 0 0 0 0 0 0 0 0 0 0 0 0 0 0 0 0 0 0 0 0 0 0 0 0 0 0
0 0 0 0 1 1 1 1 0 0 0 0 0 0 0 0 0 0 0 0 0 0 0 0 0 0 0 0 0 0 0 0 0 0 0 0 0 0 0 0 0 0 0
0 0 0 0 0 0 1 0 0 1 1 1 0 0 0 0 0 0 0 0 0 0 0 0 0 0 0 0 0 0 0 0 0 0 0 0 0 0 0 0 0 0 0
0 0 0 0 0 0 0 0 0 1 1 1 1 1 0 0 0 0 0 0 0 0 0 0 0 0 0 0 0 0 0 0 0 0 0 0 0 0 0 0 0 0 0
0 0 0 0 0 0 0 0 0 0 1 1 1 1 0 0 0 0 0 0 0 0 0 0 0 0 0 0 0 0 0 0 0 0 0 0 0 0 0 0 0 0 0
0 0 0 0 0 0 0 0 0 0 0 1 1 1 0 0 0 0 0 0 0 0 0 0 0 0 0 0 0 0 0 0 0 0 0 0 0 0 0 0 0 0 0
0 0 0 0 0 0 0 0 0 0 0 0 1 1 0 0 0 0 0 0 0 0 0 0 0 0 0 0 0 0 0 0 0 0 0 0 0 0 0 0 0 0 0
Wind_Speed
1 1 1 1 1 1 1 0 1 1 1 2 2 2 1 1 1 1 1 2 2 3 3 3 3 2 3 3 3 4 4 4 4 4 4 4 5 5 5 5 5 4 5
1 1 1 1 1 1 1 1 1 1 1 1 2 2 1 1 1 1 1 1 1 1 2 3 3 3 2 3 3 3 3 3 4 5 5 5 5 5 6 6 5 5 5
1 1 1 1 1 1 1 1 1 1 1 2 2 2 2 2 1 1 1 1 1 1 2 2 2 2 2 2 2 3 3 3 4 4 5 6 6 6 6 6 6 6 6
1 1 1 1 1 1 1 1 1 1 1 1 1 2 1 1 1 1 1 1 1 0 1 2 2 2 2 2 2 3 3 3 4 4 5 5 6 6 6 7 7 7 6
1 1 1 1 1 1 1 1 1 1 1 1 2 1 1 1 1 1 1 1 1 1 0 1 2 3 3 2 3 3 4 4 4 5 5 6 6 7 7 7 8 8 8
2 1 1 1 1 1 1 1 1 1 1 1 2 2 1 1 1 0 1 0 1 1 0 0 0 1 2 3 4 4 5 5 5 6 6 7 7 7 7 8 8 8 9
1 1 1 1 1 0 0 0 0 1 1 1 1 2 2 2 1 1 0 0 0 0 0 0 0 0 1 3 4 5 5 6 6 7 7 7 8 8 8 9 9 9 10
2 1 1 1 1 0 1 0 0 0 1 1 0 1 2 2 2 1 1 1 1 0 1 1 1 1 1 1 3 5 6 7 8 8 8 9 9 9 9 9 10 10 10
1 1 1 1 1 0 0 1 0 0 1 1 0 1 1 2 2 2 2 1 1 1 1 1 1 1 2 1 1 4 5 7 8 9 9 9 10 10 10 10 10 11 11
1 0 1 0 0 0 1 1 1 1 1 1 1 1 1 1 1 2 2 1 2 2 2 2 2 2 2 1 2 4 6 7 8 9 9 10 10 10 10 10 11 12 11
1 0 1 1 1 1 1 1 1 1 1 1 1 1 1 2 1 2 3 2 2 2 2 2 2 2 2 2 2 3 6 7 8 8 9 10 10 10 10 11 11 11 12
0 0 0 1 1 1 1 1 1 2 2 2 1 1 1 1 2 2 3 3 3 3 3 2 2 2 2 2 3 5 6 7 8 8 9 9 10 10 11 11 11 11 11
0 0 1 1 1 1 1 1 1 1 2 2 2 2 2 2 1 2 2 3 3 3 3 2 2 2 2 1 2 5 6 7 7 7 8 9 9 10 11 11 11 11 12
0 0 0 1 1 1 1 1 1 1 1 1 2 2 1 2 1 1 2 2 3 3 2 3 2 1 1 1 3 5 4 7 7 8 8 8 9 9 10 10 11 11 11
0 0 0 0 1 1 1 1 1 1 1 1 2 2 1 1 1 1 1 2 2 4 4 3 2 2 2 2 4 2 2 7 8 8 8 7 8 9 9 10 10 11 11
0 0 0 0 1 1 0 0 1 1 1 1 1 1 1 2 1 1 1 2 2 3 4 2 2 3 3 3 5 3 4 8 8 8 8 8 8 9 10 11 11 11 11
0 1 1 1 1 1 1 1 1 1 1 1 1 1 2 2 1 1 1 2 2 2 5 4 2 3 3 3 4 3 3 3 3 8 8 9 9 10 10 11 11 11 12
1 1 1 1 1 1 1 1 1 1 1 2 2 2 2 2 2 2 2 2 2 2 3 5 3 3 3 3 3 4 4 4 3 7 9 9 10 10 10 10 11 11 12
1 1 1 1 1 1 1 1 2 2 2 2 2 2 2 2 2 2 2 3 2 3 2 3 4 3 3 3 3 4 4 3 4 6 8 9 10 10 10 11 11 11 12
1 1 1 1 1 1 1 2 2 2 2 2 2 2 2 2 3 2 2 3 3 3 3 3 4 3 3 3 2 3 4 3 4 5 5 7 9 10 11 11 11 11 11
1 1 1 1 2 2 2 2 2 2 2 2 2 2 3 3 4 3 3 3 3 3 3 3 4 3 3 3 3 3 4 5 5 3 3 4 5 4 5 8 10 11 12
2 1 1 1 2 2 2 3 2 2 2 3 3 3 3 4 4 5 6 6 5 4 4 4 4 4 5 4 3 3 4 4 4 2 3 6 3 4 4 4 9 12 12
2 2 2 2 2 2 3 3 4 3 3 3 3 3 3 4 5 3 5 6 6 7 7 5 5 6 6 5 4 4 4 5 5 4 4 5 3 4 4 6 12 12 12
1 2 2 2 2 3 4 4 4 3 2 3 3 4 4 4 4 4 3 4 4 5 6 5 5 7 6 5 5 5 5 6 5 4 3 4 3 4 5 4 9 11 12
2 2 2 2 3 3 5 5 4 2 3 3 4 3 4 4 6 6 4 4 5 5 6 8 9 8 9 8 6 3 3 4 5 4 2 3 3 4 4 4 5 9 11
2 2 3 2 3 3 5 5 5 2 3 3 3 3 4 5 6 6 4 4 5 5 5 5 6 7 6 6 8 4 3 4 4 4 1 2 3 3 4 3 3 4 5
Wind_Direction
89 83 75 71 63 68 76 320 307 327 325 336 339 341 345 353 38 79 100 86 45 5 359 6 6 15 25 21 20 19 12 7 4 0 355 351 345 336 325 322 326 327 328
83 93 80 63 38 43 23 341 324 334 329 344 337 333 347 1 8 46 109 95 60 22 357 351 345 348 353 353 1 9 2 360 355 356 353 351 344 334 329 324 325 319 317
83 84 94 78 37 32 9 352 344 353 350 354 343 335 347 3 355 6 68 91 79 0 336 327 326 327 331 331 347 351 352 351 351 345 339 340 341 335 328 323 319 316 314
68 69 73 81 60 41 21 359 2 2 344 340 322 316 332 334 325 337 53 80 91 57 326 322 324 313 308 316 328 339 349 345 341 342 336 335 338 336 332 327 319 317 313
54 78 70 54 71 59 29 350 358 355 339 321 306 306 325 322 313 344 2 60 68 75 69 317 325 320 308 309 314 319 321 323 321 321 319 317 320 323 324 321 316 312 306
45 50 68 50 47 68 42 21 351 359 355 320 320 322 304 282 277 304 296 24 53 26 33 43 339 310 306 302 300 300 302 305 309 309 309 306 304 307 310 311 310 307 304
47 54 42 50 43 65 109 281 343 0 335 339 357 324 305 288 243 240 262 288 281 285 24 348 302 275 279 293 294 290 294 296 298 301 303 305 303 302 303 306 305 304 304
37 31 40 39 15 11 349 319 25 35 332 20 49 324 323 316 319 292 271 247 268 317 296 290 290 298 283 253 289 292 293 296 298 300 298 297 299 299 300 301 303 303 305
58 25 357 26 347 345 254 285 279 186 236 283 8 152 223 263 307 290 270 261 294 290 281 263 239 254 262 249 259 285 291 295 296 296 299 301 300 298 297 301 303 302 304
85 44 320 310 275 276 268 272 265 258 199 238 292 294 269 263 260 299 297 299 292 274 264 274 263 248 241 246 256 279 286 289 293 295 295 298 299 302 303 305 305 304 305
133 109 300 304 294 278 269 275 271 257 229 213 218 264 285 298 267 246 282 298 294 273 259 254 252 244 243 247 249 269 287 289 290 292 296 299 301 301 303 306 307 307 308
186 167 322 321 309 290 271 265 256 258 249 236 230 225 226 242 255 245 261 280 281 275 270 256 244 234 237 238 270 287 281 285 287 292 296 299 301 300 302 304 305 307 308
200 270 326 304 301 296 284 261 246 259 258 248 239 244 251 251 253 258 264 280 286 288 277 270 251 243 255 250 275 296 279 281 286 293 299 300 300 299 299 301 303 304 305
197 175 265 301 328 334 321 309 283 261 261 261 259 252 258 265 263 256 257 273 290 286 276 272 287 266 298 298 283 290 279 281 283 290 293 294 297 298 299 300 301 303 305
143 104 198 294 311 303 297 305 291 278 270 261 256 252 256 265 254 255 261 253 256 278 281 268 280 297 297 290 290 277 266 278 280 282 285 292 297 298 297 297 298 300 302
137 188 192 251 268 259 260 261 284 285 266 262 257 258 267 266 262 266 264 269 261 260 272 276 283 296 298 295 296 291 268 286 278 279 284 289 292 294 294 296 297 298 300
271 226 216 220 242 243 240 230 237 249 245 260 269 254 260 271 260 261 268 271 268 261 270 286 286 304 307 304 304 295 291 276 279 283 284 286 287 289 291 294 297 297 299
334 289 265 238 247 260 267 256 253 252 241 248 262 266 268 268 262 262 259 259 263 265 265 282 295 297 294 291 290 293 300 299 291 286 285 285 286 289 293 295 296 296 298
326 325 305 267 258 253 251 257 251 249 242 242 244 247 256 254 257 255 260 264 265 273 267 275 285 285 283 288 299 300 299 298 298 291 284 285 289 292 293 293 294 297 300
321 307 302 285 268 256 249 255 256 263 259 256 251 250 253 250 252 257 268 271 276 279 278 277 284 287 285 292 306 305 308 304 299 295 289 293 293 294 291 292 296 298 298
321 306 294 293 290 261 241 243 247 262 261 262 260 256 254 261 268 266 268 269 274 275 279 277 280 287 287 301 299 296 295 301 294 278 296 292 290 284 285 289 294 297 296
315 308 299 286 285 284 283 277 263 249 254 259 262 258 257 261 272 283 284 284 275 266 269 267 270 274 275 276 281 290 295 303 297 290 299 290 281 281 282 278 297 301 300
310 311 302 292 288 281 289 282 275 259 248 250 254 257 263 261 268 258 274 283 283 282 274 266 265 266 270 272 278 281 281 281 278 286 293 282 277 281 285 293 300 301 306
298 297 291 288 286 292 294 293 290 268 258 261 260 255 255 262 261 263 261 270 267 270 272 267 259 263 265 262 256 262 270 278 278 272 262 275 284 287 294 289 293 302 310
298 288 287 288 288 292 300 299 294 261 255 263 267 261 260 258 269 279 274 269 275 277 282 282 282 281 285 286 285 281 278 285 286 279 259 263 283 299 291 279 286 301 307
292 295 291 281 273 280 300 308 309 269 265 267 270 270 275 277 279 282 269 263 271 274 281 289 284 284 279 280 286 267 258 269 281 280 267 282 282 314 304 283 285 298 301